Location: La B�doule
(43.2468°N, 5.5934°E)
Time: 22:56:02
(UTC+00:00)

Cosmos 1844 Rocket - Pass Details

Date: 07 June 2020
Orbit: 826 x 843 km, 71.0° (Epoch: 11 July)

Event Time Altitude Azimuth Distance (km) Brightness Sun altitude
Rises 01:58:29 0° 339° (NNW) 3,388 6.4 -16.3°
Reaches altitude 10° 02:01:04 10° 346° (NNW) 2,448 5.7 -16.1°
Maximum altitude 02:06:25 45° 59° (ENE) 1,119 3.8 -15.5°
Drops below altitude 10° 02:11:44 10° 132° (SE) 2,424 5.0 -15.0°
Sets 02:14:16 0° 138° (SE) 3,352 5.7 -14.7°
